| time (UTC) | temp F | wind direction | speed MPH | gust MPH | rain 1hr in | rain 24hr in | rain mn in | humidity % | barometer mb |
| 20260505101320 | 63 | 154 | 6.0 | 9.0 | 0.00 | 0.00 | 0.00 | 58 | 1008.9 |
| 20260505100314 | 63 | 121 | 7.0 | 10.0 | 0.00 | 0.00 | 0.00 | 58 | 1008.8 |
| 20260505095331 | 63 | 146 | 5.0 | 10.0 | 0.00 | 0.00 | 0.00 | 58 | 1008.8 |
| 20260505094312 | 63 | 146 | 6.0 | 11.0 | 0.00 | 0.00 | 0.00 | 59 | 1008.8 |
| 20260505093313 | 63 | 195 | 4.0 | 9.0 | 0.00 | 0.00 | 0.00 | 58 | 1008.9 |
| 20260505092336 | 64 | 208 | 7.0 | 9.0 | 0.00 | 0.00 | 0.00 | 58 | 1008.8 |
| 20260505091312 | 63 | 177 | 7.0 | 11.0 | 0.00 | 0.00 | 0.00 | 59 | 1008.7 |
| 20260505090329 | 63 | 192 | 4.0 | 9.0 | 0.00 | 0.00 | 0.00 | 60 | 1008.7 |
| 20260505085316 | 63 | 193 | 4.0 | 10.0 | 0.00 | 0.00 | 0.00 | 60 | 1008.7 |
| 20260505084336 | 63 | 148 | 3.0 | 8.0 | 0.00 | 0.00 | 0.00 | 59 | 1008.6 |
| 20260505083320 | 64 | 158 | 7.0 | 11.0 | 0.00 | 0.00 | 0.00 | 59 | 1008.5 |
| 20260505082319 | 63 | 190 | 6.0 | 12.0 | 0.00 | 0.00 | 0.00 | 60 | 1008.4 |
| 20260505081323 | 63 | 157 | 5.0 | 12.0 | 0.00 | 0.00 | 0.00 | 60 | 1008.4 |
| 20260505080317 | 63 | 183 | 5.0 | 11.0 | 0.00 | 0.00 | 0.00 | 60 | 1008.4 |
| 20260505075328 | 63 | 143 | 5.0 | 10.0 | 0.00 | 0.00 | 0.00 | 60 | 1008.4 |
| 20260505074402 | 64 | 134 | 6.0 | 10.0 | 0.00 | 0.00 | 0.00 | 59 | 1008.3 |
| 20260505073318 | 64 | 217 | 6.0 | 10.0 | 0.00 | 0.00 | 0.00 | 59 | 1008.2 |
| 20260505072338 | 64 | 138 | 7.0 | 11.0 | 0.00 | 0.00 | 0.00 | 58 | 1008.2 |
| 20260505071341 | 63 | 141 | 7.0 | 11.0 | 0.00 | 0.00 | 0.00 | 60 | 1008.1 |
| 20260505070318 | 62 | 147 | 5.0 | 11.0 | 0.00 | 0.00 | 0.00 | 62 | 1008.1 |
| 20260505065328 | 60 | 145 | 6.0 | 10.0 | 0.00 | 0.00 | 0.00 | 65 | 1008.0 |
| 20260505064316 | 59 | 156 | 3.0 | 7.0 | 0.00 | 0.00 | 0.00 | 68 | 1008.2 |
| 20260505063344 | 58 | 177 | 2.0 | 4.0 | 0.00 | 0.00 | 0.00 | 70 | 1008.3 |
| 20260505062315 | 58 | 175 | 1.0 | 3.0 | 0.00 | 0.00 | 0.00 | 72 | 1008.3 |
| 20260505061317 | 58 | 191 | 0.0 | 1.0 | 0.00 | 0.00 | 0.00 | 71 | 1008.4 |
| 20260505060322 | 59 | 191 | 0.0 | 2.0 | 0.00 | 0.00 | 0.00 | 68 | 1008.4 |
| 20260505055318 | 61 | 191 | 0.0 | 2.0 | 0.00 | 0.00 | 0.00 | 65 | 1008.3 |
| 20260505054317 | 62 | 191 | 0.0 | 2.0 | 0.00 | 0.00 | 0.00 | 62 | 1008.4 |
| 20260505053317 | 63 | 191 | 2.0 | 8.0 | 0.00 | 0.00 | 0.00 | 60 | 1008.4 |
| 20260505052340 | 63 | 168 | 4.0 | 8.0 | 0.00 | 0.00 | 0.00 | 60 | 1008.4 |
| 20260505051341 | 63 | 161 | 5.0 | 8.0 | 0.00 | 0.00 | 0.00 | 60 | 1008.4 |
| 20260505050320 | 63 | 155 | 5.0 | 12.0 | 0.00 | 0.00 | 0.00 | 61 | 1008.4 |
| 20260505041341 | 65 | 158 | 6.0 | 12.0 | 0.00 | 0.00 | 0.00 | 59 | 1008.3 |
| 20260505040320 | 65 | 149 | 5.0 | 11.0 | 0.00 | 0.00 | 0.00 | 59 | 1008.3 |
| 20260505035331 | 65 | 176 | 6.0 | 11.0 | 0.00 | 0.00 | 0.00 | 59 | 1008.3 |
| 20260505034327 | 65 | 115 | 4.0 | 8.0 | 0.00 | 0.00 | 0.00 | 58 | 1008.2 |
| 20260505033401 | 65 | 154 | 4.0 | 11.0 | 0.00 | 0.00 | 0.00 | 57 | 1008.2 |
| 20260505032316 | 66 | 163 | 6.0 | 11.0 | 0.00 | 0.00 | 0.00 | 56 | 1008.3 |
| 20260505031338 | 66 | 150 | 5.0 | 11.0 | 0.00 | 0.00 | 0.00 | 56 | 1008.3 |
| 20260505030316 | 66 | 180 | 6.0 | 11.0 | 0.00 | 0.00 | 0.00 | 55 | 1008.4 |
| 20260505025317 | 66 | 179 | 7.0 | 13.0 | 0.00 | 0.00 | 0.00 | 55 | 1008.4 |
| 20260505024317 | 66 | 172 | 5.0 | 10.0 | 0.00 | 0.00 | 0.00 | 55 | 1008.4 |
| 20260505023339 | 66 | 143 | 4.0 | 8.0 | 0.00 | 0.00 | 0.00 | 55 | 1008.4 |
| 20260505022336 | 66 | 199 | 4.0 | 8.0 | 0.00 | 0.00 | 0.00 | 55 | 1008.3 |
| 20260505021339 | 66 | 171 | 4.0 | 8.0 | 0.00 | 0.00 | 0.00 | 55 | 1008.3 |
| 20260505020319 | 66 | 201 | 3.0 | 7.0 | 0.00 | 0.00 | 0.00 | 54 | 1008.3 |
| 20260505015319 | 67 | 150 | 3.0 | 7.0 | 0.00 | 0.00 | 0.00 | 53 | 1008.2 |
| 20260505014320 | 68 | 184 | 4.0 | 10.0 | 0.00 | 0.00 | 0.00 | 51 | 1008.1 |
| 20260505013339 | 69 | 163 | 4.0 | 10.0 | 0.00 | 0.00 | 0.00 | 49 | 1008.0 |
| 20260505012353 | 69 | 176 | 6.0 | 10.0 | 0.00 | 0.00 | 0.00 | 49 | 1007.7 |
| 20260505011337 | 69 | 218 | 6.0 | 10.0 | 0.00 | 0.00 | 0.00 | 48 | 1007.8 |
| 20260505010333 | 70 | 159 | 5.0 | 9.0 | 0.00 | 0.00 | 0.00 | 47 | 1007.7 |
| 20260505005337 | 70 | 165 | 6.0 | 10.0 | 0.00 | 0.00 | 0.00 | 46 | 1007.4 |
| 20260505004317 | 70 | 160 | 5.0 | 12.0 | 0.00 | 0.00 | 0.00 | 46 | 1007.2 |
| 20260505003354 | 70 | 161 | 5.0 | 10.0 | 0.00 | 0.00 | 0.00 | 46 | 1007.1 |
| 20260505002338 | 70 | 168 | 5.0 | 12.0 | 0.00 | 0.00 | 0.00 | 44 | 1007.1 |
| 20260505001330 | 70 | 177 | 4.0 | 12.0 | 0.00 | 0.00 | 0.00 | 44 | 1007.0 |
| 20260505000319 | 71 | 156 | 6.0 | 12.0 | 0.00 | 0.00 | 0.00 | 44 | 1006.9 |
| 20260504235320 | 71 | 177 | 7.0 | 14.0 | 0.00 | 0.00 | 0.00 | 43 | 1006.8 |
| 20260504234336 | 72 | 184 | 5.0 | 13.0 | 0.00 | 0.00 | 0.00 | 42 | 1006.9 |
| 20260504233333 | 73 | 134 | 7.0 | 11.0 | 0.00 | 0.00 | 0.00 | 40 | 1006.7 |
| 20260504232336 | 73 | 165 | 6.0 | 13.0 | 0.00 | 0.00 | 0.00 | 40 | 1006.7 |
| 20260504231357 | 74 | 207 | 7.0 | 13.0 | 0.00 | 0.00 | 0.00 | 40 | 1006.7 |
| 20260504230321 | 74 | 190 | 4.0 | 15.0 | 0.00 | 0.00 | 0.00 | 40 | 1006.8 |
| 20260504225334 | 74 | 103 | 7.0 | 14.0 | 0.00 | 0.00 | 0.00 | 39 | 1006.7 |
| 20260504224348 | 75 | 223 | 7.0 | 14.0 | 0.00 | 0.00 | 0.00 | 38 | 1006.8 |
| 20260504223314 | 74 | 160 | 7.0 | 13.0 | 0.00 | 0.00 | 0.00 | 39 | 1006.8 |
| 20260504222315 | 74 | 166 | 8.0 | 17.0 | 0.00 | 0.00 | 0.00 | 38 | 1006.8 |
| 20260504221335 | 74 | 200 | 5.0 | 16.0 | 0.00 | 0.00 | 0.00 | 39 | 1006.8 |
| 20260504220315 | 75 | 171 | 6.0 | 12.0 | 0.00 | 0.00 | 0.00 | 38 | 1006.8 |
| 20260504215322 | 76 | 142 | 5.0 | 15.0 | 0.00 | 0.00 | 0.00 | 38 | 1006.8 |
| 20260504214335 | 75 | 153 | 5.0 | 12.0 | 0.00 | 0.00 | 0.00 | 38 | 1006.8 |
| 20260504213325 | 75 | 167 | 6.0 | 14.0 | 0.00 | 0.00 | 0.00 | 37 | 1006.8 |
| 20260504212332 | 76 | 194 | 5.0 | 12.0 | 0.00 | 0.00 | 0.00 | 38 | 1006.8 |
| 20260504211336 | 76 | 154 | 4.0 | 17.0 | 0.00 | 0.00 | 0.00 | 38 | 1006.8 |
| 20260504210329 | 77 | 145 | 8.0 | 16.0 | 0.00 | 0.00 | 0.00 | 34 | 1006.9 |
| 20260504205354 | 78 | 192 | 6.0 | 11.0 | 0.00 | 0.00 | 0.00 | 33 | 1006.7 |
| 20260504204339 | 77 | 243 | 6.0 | 15.0 | 0.00 | 0.00 | 0.00 | 36 | 1006.8 |
| 20260504203353 | 76 | 194 | 9.0 | 16.0 | 0.00 | 0.00 | 0.00 | 36 | 1006.9 |
| 20260504202339 | 75 | 202 | 7.0 | 11.0 | 0.00 | 0.00 | 0.00 | 36 | 1007.1 |
| 20260504201315 | 77 | 205 | 4.0 | 13.0 | 0.00 | 0.00 | 0.00 | 36 | 1007.1 |
| 20260504200317 | 76 | 179 | 7.0 | 15.0 | 0.00 | 0.00 | 0.00 | 38 | 1007.4 |
| 20260504195339 | 76 | 178 | 5.0 | 12.0 | 0.00 | 0.00 | 0.00 | 36 | 1007.6 |
| 20260504194314 | 76 | 211 | 6.0 | 13.0 | 0.00 | 0.00 | 0.00 | 36 | 1007.6 |
| 20260504193318 | 76 | 218 | 5.0 | 12.0 | 0.00 | 0.00 | 0.00 | 37 | 1008.0 |
| 20260504192317 | 75 | 154 | 7.0 | 13.0 | 0.00 | 0.00 | 0.00 | 36 | 1008.2 |
| 20260504191340 | 76 | 186 | 5.0 | 16.0 | 0.00 | 0.00 | 0.00 | 36 | 1008.3 |
| 20260504190338 | 75 | 215 | 5.0 | 11.0 | 0.00 | 0.00 | 0.00 | 38 | 1008.3 |
| 20260504185331 | 76 | 252 | 5.0 | 11.0 | 0.00 | 0.00 | 0.00 | 37 | 1008.5 |
| 20260504184314 | 75 | 166 | 7.0 | 13.0 | 0.00 | 0.00 | 0.00 | 39 | 1008.7 |
| 20260504183314 | 74 | 186 | 4.0 | 14.0 | 0.00 | 0.00 | 0.00 | 38 | 1008.8 |
| 20260504182332 | 76 | 188 | 7.0 | 15.0 | 0.00 | 0.00 | 0.00 | 39 | 1009.1 |
| 20260504181336 | 75 | 209 | 6.0 | 14.0 | 0.00 | 0.00 | 0.00 | 36 | 1009.2 |
| 20260504180337 | 75 | 154 | 8.0 | 15.0 | 0.00 | 0.00 | 0.00 | 37 | 1009.4 |
| 20260504175333 | 74 | 130 | 8.0 | 17.0 | 0.00 | 0.00 | 0.00 | 38 | 1009.5 |
| 20260504174338 | 74 | 138 | 5.0 | 11.0 | 0.00 | 0.00 | 0.00 | 41 | 1009.5 |
| 20260504173349 | 74 | 194 | 5.0 | 14.0 | 0.00 | 0.00 | 0.00 | 39 | 1009.9 |
| 20260504172329 | 73 | 196 | 7.0 | 14.0 | 0.00 | 0.00 | 0.00 | 39 | 1010.0 |
| 20260504171315 | 73 | 153 | 5.0 | 10.0 | 0.00 | 0.00 | 0.00 | 38 | 1010.2 |
| 20260504170333 | 73 | 237 | 6.0 | 11.0 | 0.00 | 0.00 | 0.00 | 39 | 1010.2 |
| 20260504160338 | 70 | 242 | 4.0 | 8.0 | 0.00 | 0.00 | 0.00 | 39 | 1011.1 |
| 20260504150333 | 68 | 207 | 5.0 | 14.0 | 0.00 | 0.00 | 0.00 | 43 | 1011.7 |
| 20260504141316 | 65 | 155 | 7.0 | 14.0 | 0.00 | 0.00 | 0.00 | 41 | 1012.0 |
| 20260504140318 | 65 | 208 | 6.0 | 11.0 | 0.00 | 0.00 | 0.00 | 41 | 1011.9 |
| 20260504130336 | 60 | 169 | 5.0 | 14.0 | 0.00 | 0.00 | 0.00 | 42 | 1012.0 |
| 20260504120315 | 56 | 157 | 5.0 | 10.0 | 0.00 | 0.00 | 0.00 | 48 | 1012.3 |
| 20260504110316 | 49 | 198 | 3.0 | 8.0 | 0.00 | 0.00 | 0.00 | 60 | 1012.7 |